| time (UTC) | temp F | wind direction | speed MPH | gust MPH | rain 1hr in | rain 24hr in | rain mn in | humidity % | barometer mb |
| 20260509031611 | 49 | 161 | 1.0 | 4.0 | 0.00 | 0.27 | 0.27 | 93 | 1015.3 |
| 20260509030003 | 49 | 166 | 1.0 | 4.0 | 0.00 | 0.27 | 0.27 | 93 | 1015.3 |
| 20260509024602 | 49 | 175 | 1.0 | 5.0 | 0.00 | 0.27 | 0.27 | 92 | 1015.4 |
| 20260509023003 | 50 | 190 | 2.0 | 6.0 | 0.06 | 0.27 | 0.27 | 92 | 1015.5 |
| 20260509021602 | 50 | 162 | 2.0 | 5.0 | 0.27 | 0.27 | 0.27 | 92 | 1015.5 |
| 20260509020003 | 50 | 177 | 2.0 | 7.0 | 0.27 | 0.27 | 0.27 | 92 | 1015.4 |
| 20260509014512 | 50 | 135 | 0.0 | 2.0 | 0.27 | 0.27 | 0.27 | 91 | 1015.6 |
| 20260509013104 | 50 | 111 | 4.0 | 7.0 | 0.21 | 0.21 | 0.21 | 90 | 1015.6 |
| 20260509011502 | 49 | 221 | 0.0 | 4.0 | 0.00 | 0.00 | 0.00 | 89 | 1015.6 |
| 20260509010104 | 49 | 137 | 2.0 | 5.0 | 0.00 | 0.00 | 0.00 | 87 | 1015.8 |
| 20260509004502 | 49 | 160 | 2.0 | 7.0 | 0.00 | 0.00 | 0.00 | 87 | 1015.7 |
| 20260509003106 | 48 | 152 | 2.0 | 5.0 | 0.00 | 0.00 | 0.00 | 86 | 1015.6 |
| 20260509001502 | 49 | 174 | 0.0 | 0.0 | 0.00 | 0.00 | 0.00 | 85 | 1015.6 |
| 20260508234503 | 50 | 165 | 0.0 | 0.0 | 0.00 | 0.00 | 0.00 | 85 | 1015.6 |
| 20260508233101 | 50 | 165 | 0.0 | 0.0 | 0.00 | 0.00 | 0.00 | 85 | 1015.7 |
| 20260508231502 | 50 | 166 | 0.0 | 0.0 | 0.00 | 0.00 | 0.00 | 85 | 1015.5 |
| 20260508230127 | 50 | 169 | 0.0 | 0.0 | 0.00 | 0.00 | 0.00 | 83 | 1015.6 |
| 20260508224501 | 51 | 215 | 0.0 | 0.0 | 0.00 | 0.00 | 0.00 | 83 | 1015.5 |
| 20260508223102 | 51 | 215 | 0.0 | 0.0 | 0.00 | 0.00 | 0.00 | 83 | 1015.6 |
| 20260508221502 | 51 | 217 | 0.0 | 0.0 | 0.00 | 0.00 | 0.00 | 82 | 1015.6 |
| 20260508220124 | 51 | 161 | 0.0 | 0.0 | 0.00 | 0.00 | 0.00 | 81 | 1015.5 |
| 20260508214503 | 52 | 115 | 0.0 | 0.0 | 0.00 | 0.00 | 0.00 | 81 | 1015.4 |
| 20260508213102 | 52 | 115 | 0.0 | 0.0 | 0.00 | 0.00 | 0.00 | 80 | 1015.3 |
| 20260508211503 | 53 | 115 | 0.0 | 0.0 | 0.00 | 0.00 | 0.00 | 78 | 1015.2 |
| 20260508204503 | 54 | 102 | 0.0 | 0.0 | 0.00 | 0.00 | 0.00 | 75 | 1015.0 |
| 20260508203102 | 55 | 74 | 0.0 | 2.0 | 0.00 | 0.00 | 0.00 | 74 | 1015.0 |
| 20260508201502 | 55 | 52 | 0.0 | 2.0 | 0.00 | 0.00 | 0.00 | 73 | 1014.8 |
| 20260508194503 | 57 | 115 | 0.0 | 0.0 | 0.00 | 0.00 | 0.00 | 69 | 1014.6 |
| 20260508193107 | 58 | 115 | 0.0 | 0.0 | 0.00 | 0.00 | 0.00 | 68 | 1014.3 |
| 20260508191505 | 58 | 115 | 0.0 | 2.0 | 0.00 | 0.00 | 0.00 | 66 | 1014.0 |
| 20260508190109 | 59 | 277 | 0.0 | 2.0 | 0.00 | 0.00 | 0.00 | 65 | 1014.0 |
| 20260508184504 | 60 | 360 | 1.0 | 2.0 | 0.00 | 0.00 | 0.00 | 62 | 1013.6 |
| 20260508183102 | 61 | 360 | 0.0 | 3.0 | 0.00 | 0.00 | 0.00 | 61 | 1013.5 |
| 20260508181503 | 61 | 360 | 1.0 | 6.0 | 0.00 | 0.00 | 0.00 | 59 | 1013.2 |
| 20260508180109 | 62 | 360 | 2.0 | 8.0 | 0.00 | 0.00 | 0.00 | 58 | 1012.9 |
| 20260508174502 | 63 | 63 | 2.0 | 7.0 | 0.00 | 0.00 | 0.00 | 57 | 1012.8 |
| 20260508173103 | 63 | 29 | 4.0 | 8.0 | 0.00 | 0.00 | 0.00 | 56 | 1012.7 |
| 20260508171501 | 64 | 50 | 2.0 | 7.0 | 0.00 | 0.00 | 0.00 | 55 | 1012.6 |
| 20260508170106 | 64 | 28 | 3.0 | 6.0 | 0.00 | 0.00 | 0.00 | 54 | 1012.7 |
| 20260508164503 | 63 | 360 | 3.0 | 7.0 | 0.00 | 0.00 | 0.00 | 56 | 1012.7 |
| 20260508163106 | 64 | 25 | 2.0 | 5.0 | 0.00 | 0.00 | 0.00 | 55 | 1012.7 |
| 20260508161503 | 64 | 360 | 3.0 | 7.0 | 0.00 | 0.00 | 0.00 | 52 | 1012.8 |
| 20260508160105 | 65 | 94 | 1.0 | 8.0 | 0.00 | 0.00 | 0.00 | 52 | 1012.9 |
| 20260508154502 | 65 | 18 | 1.0 | 9.0 | 0.00 | 0.00 | 0.00 | 54 | 1012.9 |
| 20260508153104 | 66 | 22 | 6.0 | 10.0 | 0.00 | 0.00 | 0.00 | 49 | 1012.9 |
| 20260508151502 | 66 | 37 | 2.0 | 7.0 | 0.00 | 0.00 | 0.00 | 52 | 1013.0 |
| 20260508150104 | 66 | 20 | 3.0 | 8.0 | 0.00 | 0.00 | 0.00 | 50 | 1013.1 |
| 20260508144608 | 66 | 304 | 3.0 | 9.0 | 0.00 | 0.00 | 0.00 | 51 | 1013.1 |
| 20260508143002 | 66 | 302 | 3.0 | 6.0 | 0.00 | 0.00 | 0.00 | 51 | 1013.2 |
| 20260508141606 | 65 | 5 | 4.0 | 9.0 | 0.00 | 0.00 | 0.00 | 52 | 1013.4 |
| 20260508140005 | 65 | 273 | 5.0 | 8.0 | 0.00 | 0.00 | 0.00 | 53 | 1013.6 |
| 20260508134617 | 64 | 360 | 2.0 | 7.0 | 0.00 | 0.00 | 0.00 | 52 | 1013.6 |
| 20260508133003 | 65 | 333 | 4.0 | 9.0 | 0.00 | 0.00 | 0.00 | 53 | 1013.7 |
| 20260508131603 | 65 | 299 | 5.0 | 9.0 | 0.00 | 0.00 | 0.00 | 54 | 1013.8 |
| 20260508130001 | 66 | 360 | 4.0 | 7.0 | 0.00 | 0.00 | 0.00 | 52 | 1013.7 |
| 20260508124604 | 64 | 318 | 4.0 | 10.0 | 0.00 | 0.00 | 0.00 | 54 | 1013.9 |
| 20260508123003 | 64 | 327 | 4.0 | 8.0 | 0.00 | 0.00 | 0.00 | 56 | 1014.0 |
| 20260508121603 | 64 | 350 | 4.0 | 9.0 | 0.00 | 0.00 | 0.00 | 57 | 1014.1 |
| 20260508120003 | 64 | 329 | 4.0 | 10.0 | 0.00 | 0.00 | 0.00 | 56 | 1014.0 |
| 20260508114603 | 63 | 308 | 5.0 | 10.0 | 0.00 | 0.00 | 0.00 | 57 | 1014.1 |
| 20260508113001 | 62 | 360 | 6.0 | 10.0 | 0.00 | 0.00 | 0.00 | 59 | 1014.0 |
| 20260508111602 | 62 | 360 | 7.0 | 12.0 | 0.00 | 0.00 | 0.00 | 59 | 1014.1 |
| 20260508110017 | 63 | 294 | 7.0 | 15.0 | 0.00 | 0.00 | 0.00 | 61 | 1014.0 |
| 20260508104607 | 63 | 346 | 7.0 | 13.0 | 0.00 | 0.00 | 0.00 | 63 | 1014.2 |
| 20260508103001 | 62 | 360 | 7.0 | 16.0 | 0.00 | 0.00 | 0.00 | 66 | 1014.3 |
| 20260508101602 | 61 | 360 | 6.0 | 16.0 | 0.00 | 0.00 | 0.00 | 68 | 1014.4 |
| 20260508100002 | 60 | 289 | 8.0 | 14.0 | 0.00 | 0.00 | 0.00 | 67 | 1014.5 |
| 20260508094617 | 60 | 272 | 4.0 | 10.0 | 0.00 | 0.00 | 0.00 | 68 | 1014.5 |
| 20260508093002 | 59 | 327 | 4.0 | 11.0 | 0.00 | 0.00 | 0.00 | 69 | 1014.7 |
| 20260508091605 | 58 | 355 | 5.0 | 10.0 | 0.00 | 0.00 | 0.00 | 69 | 1014.7 |
| 20260508090004 | 56 | 360 | 4.0 | 9.0 | 0.00 | 0.00 | 0.00 | 72 | 1014.8 |
| 20260508084602 | 56 | 340 | 5.0 | 8.0 | 0.00 | 0.00 | 0.00 | 72 | 1014.9 |
| 20260508083102 | 54 | 350 | 2.0 | 6.0 | 0.00 | 0.00 | 0.00 | 78 | 1014.9 |
| 20260508081506 | 52 | 360 | 2.0 | 5.0 | 0.00 | 0.00 | 0.00 | 79 | 1014.9 |
| 20260508074503 | 51 | 321 | 1.0 | 4.0 | 0.00 | 0.00 | 0.00 | 79 | 1014.9 |
| 20260508073101 | 50 | 322 | 1.0 | 4.0 | 0.00 | 0.00 | 0.00 | 80 | 1015.1 |
| 20260508071503 | 49 | 336 | 3.0 | 5.0 | 0.00 | 0.00 | 0.00 | 81 | 1015.1 |
| 20260508070104 | 49 | 360 | 2.0 | 4.0 | 0.00 | 0.00 | 0.00 | 83 | 1015.2 |
| 20260508064505 | 48 | 360 | 0.0 | 0.0 | 0.00 | 0.00 | 0.00 | 85 | 1015.3 |
| 20260508063122 | 45 | 146 | 0.0 | 0.0 | 0.00 | 0.00 | 0.00 | 90 | 1015.3 |
| 20260508061502 | 43 | 360 | 0.0 | 0.0 | 0.00 | 0.00 | 0.00 | 91 | 1015.1 |
| 20260508060106 | 42 | 360 | 0.0 | 0.0 | 0.00 | 0.00 | 0.00 | 92 | 1015.2 |
| 20260508054506 | 41 | 360 | 0.0 | 0.0 | 0.00 | 0.00 | 0.00 | 92 | 1015.1 |
| 20260508053103 | 41 | 360 | 0.0 | 0.0 | 0.00 | 0.00 | 0.00 | 93 | 1015.1 |
| 20260508051502 | 40 | 144 | 0.0 | 0.0 | 0.00 | 0.00 | 0.00 | 93 | 1015.1 |
| 20260508044502 | 39 | 140 | 0.0 | 0.0 | 0.00 | 0.00 | 0.00 | 93 | 1014.8 |
| 20260508043105 | 39 | 140 | 0.0 | 0.0 | 0.00 | 0.00 | 0.00 | 93 | 1014.7 |
| 20260508041502 | 39 | 140 | 0.0 | 0.0 | 0.00 | 0.00 | 0.00 | 93 | 1014.6 |
| 20260508040104 | 39 | 140 | 0.0 | 0.0 | 0.00 | 0.00 | 0.00 | 93 | 1014.5 |
| 20260508034503 | 39 | 140 | 0.0 | 0.0 | 0.00 | 0.00 | 0.00 | 93 | 1014.4 |
| 20260508033102 | 40 | 140 | 0.0 | 0.0 | 0.00 | 0.00 | 0.00 | 93 | 1014.5 |